Location: ????????
(55.4717°N, 39.1821°E)
Time: 09:51:06
(UTC+00:00)

FENGYUN 3A - Pass Details

Date: 14 April 2024
Orbit: 821 x 835 km, 98.6° (Epoch: 27 May)

Event Time Altitude Azimuth Distance (km) Brightness Sun altitude
Rises 00:43:51 0° 14° (NNE) 3,400 7.8 -12.9°
Reaches altitude 10° 00:46:15 10° 11° (N) 2,460 6.9 -12.6°
Maximum altitude 00:51:34 56° 294° (WNW) 988 3.9 -12.0°
Enters shadow 00:56:02 14° 220° (SW) 2,137 5.2 -11.5°
